Location: Northcutt
(34.7304°N, 84.4305°W)
Time: 16:50:03
(UTC+00:00)

SR - Pass Details

Date: 11 October 2022
Orbit: 577 x 874 km, 66.7° (Epoch: 05 December)

Event Time Altitude Azimuth Distance (km) Brightness Sun altitude
Rises 23:53:49 0° 199° (SSW) 3,394 ? -9.9°
Reaches altitude 10° 23:56:15 10° 198° (SSW) 2,485 ? -10.4°
Maximum altitude 00:02:02 74° 114° (ESE) 909 ? -11.6°
Drops below altitude 10° 00:07:55 10° 31° (NNE) 2,519 ? -12.8°
Sets 00:10:23 0° 29° (NNE) 3,443 ? -13.3°
